sat.trackr.live / text

‹ back to catalog

YAOGAN-22

NORAD 40275 · 2014-063A

PAYLOAD ACTIVE UNKNOWN

§ Identity

Operator
Country
PRC
Launch date
2014-10-20
Launch site
TAISC
Launch vehicle
Mass (kg)
RCS (m²)
3.16

Purposes: earth_obs

External: N2YO · Heavens-Above · Gunter

§ Orbital elements

Epoch: 2026-05-24T23:45:45.821088Z

Period
109.46 min
Inclination
100.7693°
Eccentricity
0.0005865
Mean motion
13.15530447 rev/d
Perigee alt
1,197.4 km
Apogee alt
1,206.3 km
Semi-major
7,580.0 km
B*
1.1262e-4
RAAN
295.8808°
Arg perigee
239.3912°
Mean anomaly
120.6621°
Rev number
55,676

§ Raw data

YAOGAN-221 40275U 14063A   26144.99011367 -.00000004  00000+0  11262-3 0  99942 40275 100.7693 295.8808 0005865 239.3912 120.6621 13.15530447556769

JSON: /api/v1/satellites/40275 · /tle

For live sub-satellite position, see the globe view (requires WebGL).

§ Visibility from observer

Set your observer location to see the next 7 days of passes ≥ 10°. The values pass through the URL so the page stays shareable.

No JS? Fill the form by hand. The geolocation button needs JavaScript.